Vertical_Velocity
-1 -2 1 0 1 3 0 0 -0 -2 -2 2 2 -0 1 2 0 -2 -2 -2 2 1 3 2 3 2 -0 4 3 -2 -5 -1 3 3 0 -3 -6 -9 -9 -4 8 -1 2
5 1 1 1 1 1 0 1 1 -2 -2 2 0 -1 1 1 2 -1 -1 -1 0 1 3 -1 4 -0 1 -1 3 1 0 3 -1 0 -1 -4 -1 9 3 -5 -14 -5 6
1 3 3 0 3 2 1 1 -0 -2 1 1 -2 -2 0 2 2 -0 0 2 0 2 3 0 2 -3 2 -1 4 3 0 -5 -1 6 2 4 8 3 -1 5 1 0 -2
-8 -5 -8 -7 6 3 3 1 0 -1 1 1 -1 -0 1 1 3 2 -0 -1 0 2 3 1 -3 -0 1 3 1 1 4 2 5 -4 -3 -5 2 5 8 3 7 -0 8
-2 -4 -3 -10 -1 3 -2 1 1 -3 1 3 1 1 1 0 2 2 1 -1 -0 1 2 -3 -3 3 1 -4 -4 1 -4 -16 0 7 2 -1 -6 -5 -3 2 2 -7 5
4 -8 -3 -1 -9 -0 -2 -1 1 0 -1 -1 -3 -2 -1 -1 2 1 4 1 0 2 2 -0 4 -0 -4 -2 4 5 3 9 -6 -3 1 -6 -4 -4 -4 -7 -4 1 0
9 6 -2 1 -1 0 2 -3 -2 1 2 0 -2 -2 0 3 3 5 6 1 1 3 -1 3 -4 3 9 6 7 9 15 14 11 -12 -15 -7 1 8 6 -0 2 -3 -6
3 2 -0 2 0 -5 -1 1 0 0 3 4 3 3 -1 0 3 6 8 3 2 5 -1 2 3 1 2 8 9 -6 17 36 10 9 -45 -12 -9 4 8 0 -0 -3 2
5 3 -2 6 6 5 2 4 5 -2 -4 -1 -0 -1 -1 3 4 4 4 4 3 -0 -1 -2 2 1 9 7 14 23 39 -17 -101 -28 -3 -22 -0 9 2 -0 -7 -4 2
3 5 -0 -5 -6 -4 -0 -0 1 -2 0 2 1 1 3 -1 1 5 6 -0 -2 -8 -3 -0 4 8 -1 5 14 -4 18 -50 -33 -0 -6 -10 3 -2 0 1 1 -7 -1
-7 -12 18 24 9 3 2 2 2 1 -1 3 4 9 6 3 3 3 7 9 9 -2 2 -3 2 9 2 -4 -4 4 10 7 -6 -3 4 -4 -5 5 -1 -1 0 -6 -1
-36 -11 26 55 14 -1 -1 3 1 -2 -3 0 -2 -0 2 5 6 6 2 4 -2 -2 4 1 1 -2 3 7 1 6 9 -2 -1 2 -1 -3 11 -0 -3 0 2 -8 1
17 20 4 -18 -22 -4 -7 -10 -2 -6 -10 -8 -7 -3 3 0 3 4 2 4 1 -2 -1 10 1 1 -1 14 7 2 1 1 6 -5 5 2 -2 -2 2 -1 -3 -4 -8
-7 -10 10 -11 9 -6 -7 2 8 1 -1 -1 1 -2 -4 1 5 2 3 -1 -0 2 2 -1 4 16 5 2 4 3 4 1 -1 2 1 0 4 2 1 5 0 -5 5
1 3 -1 -6 1 -3 -12 1 6 -2 0 -5 -2 -4 -4 1 -0 2 5 1 -0 2 -1 6 -1 0 4 11 -4 1 3 1 5 2 4 5 4 2 -1 0 -0 2 0
1 -10 6 0 0 -0 -3 -5 0 -3 -4 -6 -3 -1 -4 -1 0 1 2 10 3 5 4 -5 11 -2 7 0 -3 2 1 2 -1 -0 0 -1 1 3 1 0 4 1 0
-3 -6 -7 -9 -7 -8 -7 -2 -3 1 -3 -3 -3 -1 -4 -4 -5 5 3 4 1 1 12 7 4 -4 1 0 0 3 -1 -2 -3 2 1 0 -5 4 -2 -4 3 -6 -1
-5 -3 -1 2 3 -0 -3 -3 -1 -0 -2 -3 0 0 -0 -1 0 -3 9 4 4 15 3 6 -2 4 -3 8 2 -2 5 1 2 2 3 -2 -3 3 3 -2 -0 4 -4
-8 -13 -10 -2 3 8 6 -1 -5 -4 2 -5 -9 -3 1 -3 9 6 -4 2 0 1 0 2 -1 6 -3 -3 4 8 -6 -6 -11 2 1 -10 0 3 1 0 4 -2 -1
-4 -1 3 -1 -7 4 8 5 -14 14 4 -3 -0 11 -6 13 6 11 18 1 -4 3 7 5 1 -4 1 8 -9 -10 -13 -4 -11 6 -5 -7 -1 3 0 3 3 -0 -6
4 8 6 -1 4 6 3 2 -2 1 -2 11 5 5 5 -0 -1 6 1 18 4 -5 -1 6 5 0 -11 -8 -4 -2 -2 -6 7 9 -8 -6 -1 -3 7 -2 2 -3 -2
-8 0 -2 2 4 1 5 9 6 6 5 5 7 7 3 3 -3 -6 -12 2 6 -7 -9 -14 -6 -12 -5 3 0 -5 1 -3 3 2 -12 -2 0 -1 -1 -2 2 -1 -4
-7 -8 -2 -0 1 -4 -10 1 3 -3 -2 1 -11 8 -2 -4 -6 2 0 -6 5 4 -0 -2 -4 -4 2 7 -3 -1 -2 1 -2 -0 -1 -3 1 -1 2 -0 -2 -4 -5
-4 -4 -4 -0 -3 -4 2 1 -4 -1 1 -3 -1 -0 -2 -2 4 -1 4 2 2 1 0 -5 -2 0 -3 -5 -2 -0 -0 -0 -5 -3 -1 1 2 -1 -2 -1 -1 -5 -3
1 -1 0 1 0 1 3 -0 -1 3 3 1 3 2 1 -1 -3 -0 -0 -0 1 -2 -3 -3 -3 -3 -2 -1 -2 -1 -1 -3 -2 1 2 -0 -3 -3 0 2 -0 -1 -1
1 0 -1 -1 -1 -3 -4 -1 2 3 2 1 -1 -1 -2 -2 -2 -2 -2 -1 -4 -3 -2 -1 0 -1 -0 0 1 2 1 -1 -2 -0 -3 -6 -1 2 1 -1 -1 1 -0
Height
3151 3154 3157 3160 3163 3167 3170 3173 3175 3178 3180 3183 3185 3187 3190 3192 3194 3196 3198 3199 3200 3201 3202 3202 3202 3203 3204 3204 3203 3203 3203 3201 3200 3198 3198 3196 3195 3193 3192 3191 3188 3186 3184
3149 3152 3154 3157 3159 3162 3166 3170 3173 3175 3177 3179 3181 3184 3186 3188 3190 3193 3195 3196 3197 3198 3199 3199 3200 3200 3200 3200 3200 3200 3200 3198 3196 3194 3192 3191 3190 3188 3187 3185 3185 3184 3180
3147 3149 3151 3154 3156 3159 3162 3166 3170 3173 3174 3176 3178 3180 3182 3184 3186 3188 3190 3192 3193 3194 3196 3196 3197 3196 3197 3196 3196 3195 3195 3195 3194 3192 3190 3188 3186 3185 3183 3181 3179 3177 3174
3142 3144 3148 3150 3153 3156 3159 3162 3166 3169 3171 3173 3175 3178 3179 3181 3182 3184 3186 3189 3190 3190 3192 3193 3193 3192 3193 3193 3192 3192 3191 3191 3190 3189 3187 3186 3185 3183 3181 3178 3175 3171 3168
3136 3139 3143 3147 3148 3151 3154 3158 3162 3165 3168 3170 3172 3174 3176 3178 3180 3182 3184 3185 3186 3187 3187 3188 3188 3189 3189 3187 3187 3186 3185 3184 3185 3184 3181 3181 3180 3178 3175 3172 3169 3165 3162
3133 3137 3140 3142 3145 3147 3151 3154 3157 3162 3165 3166 3169 3171 3173 3175 3178 3179 3180 3181 3182 3182 3183 3183 3183 3182 3182 3181 3180 3177 3176 3175 3175 3177 3176 3175 3173 3169 3167 3164 3161 3158 3153
3132 3135 3137 3139 3142 3145 3147 3150 3153 3157 3160 3162 3164 3166 3168 3171 3172 3174 3175 3175 3175 3176 3176 3176 3176 3176 3176 3175 3173 3171 3167 3164 3163 3162 3169 3171 3168 3164 3159 3155 3152 3148 3145
3129 3133 3134 3137 3139 3141 3144 3147 3149 3151 3154 3157 3159 3160 3161 3164 3166 3167 3168 3168 3167 3169 3169 3168 3167 3166 3167 3166 3162 3160 3155 3141 3141 3149 3158 3161 3156 3152 3146 3143 3142 3140 3136
3123 3127 3130 3133 3135 3137 3139 3143 3145 3146 3148 3150 3152 3153 3154 3156 3158 3159 3159 3158 3158 3159 3158 3158 3157 3156 3156 3154 3152 3150 3145 3141 3136 3151 3148 3143 3140 3138 3137 3135 3132 3129 3127
3114 3117 3122 3125 3128 3131 3134 3137 3139 3141 3144 3145 3147 3148 3149 3151 3153 3153 3152 3150 3149 3149 3148 3148 3147 3146 3146 3145 3142 3138 3131 3138 3133 3141 3137 3129 3128 3131 3129 3127 3123 3119 3117
3107 3112 3112 3116 3118 3124 3128 3130 3133 3134 3135 3137 3139 3141 3141 3143 3143 3143 3142 3138 3139 3138 3137 3139 3138 3136 3136 3131 3131 3129 3127 3124 3121 3125 3126 3121 3121 3122 3120 3117 3114 3111 3107
3107 3108 3105 3099 3106 3114 3120 3123 3125 3126 3127 3127 3127 3127 3129 3130 3131 3130 3129 3126 3126 3126 3126 3128 3126 3123 3120 3118 3118 3118 3115 3113 3111 3114 3114 3111 3113 3111 3109 3107 3103 3100 3097
3101 3100 3098 3100 3107 3112 3114 3116 3117 3117 3118 3118 3118 3118 3118 3118 3119 3119 3117 3115 3113 3114 3117 3114 3113 3110 3109 3109 3107 3104 3103 3104 3104 3102 3104 3103 3103 3102 3099 3097 3093 3091 3089
3094 3097 3096 3101 3103 3106 3108 3109 3109 3109 3109 3109 3108 3108 3108 3108 3108 3107 3107 3105 3102 3100 3101 3102 3101 3100 3099 3098 3096 3095 3095 3094 3095 3096 3096 3096 3095 3093 3091 3088 3085 3084 3082
3092 3093 3095 3096 3097 3099 3100 3101 3100 3099 3099 3097 3096 3095 3094 3094 3095 3095 3094 3093 3093 3092 3092 3092 3092 3092 3090 3086 3087 3087 3087 3088 3088 3089 3089 3089 3087 3085 3082 3082 3080 3079 3077
3085 3087 3088 3088 3089 3091 3091 3091 3091 3089 3088 3086 3084 3082 3082 3081 3081 3081 3081 3082 3081 3082 3081 3081 3083 3084 3080 3080 3080 3081 3081 3082 3083 3083 3083 3082 3081 3079 3078 3076 3075 3074 3071
3077 3079 3080 3080 3081 3082 3081 3081 3080 3080 3077 3074 3073 3071 3070 3070 3069 3070 3068 3068 3070 3072 3072 3072 3072 3073 3073 3073 3073 3075 3076 3076 3076 3075 3075 3074 3073 3072 3071 3070 3069 3067 3065
3067 3066 3066 3066 3067 3069 3070 3068 3067 3066 3065 3064 3062 3062 3061 3060 3060 3061 3061 3060 3062 3063 3063 3064 3065 3065 3067 3067 3068 3069 3069 3070 3070 3070 3068 3068 3067 3066 3064 3062 3061 3059 3057
3059 3057 3056 3055 3055 3055 3056 3058 3058 3057 3056 3054 3056 3056 3055 3055 3055 3057 3058 3058 3058 3057 3059 3060 3061 3061 3061 3062 3063 3063 3064 3065 3065 3064 3061 3062 3061 3060 3059 3057 3055 3053 3051
3048 3047 3046 3048 3050 3051 3050 3051 3050 3051 3051 3050 3051 3049 3051 3050 3054 3051 3049 3052 3052 3052 3052 3054 3053 3055 3055 3057 3057 3058 3057 3059 3058 3058 3057 3056 3056 3055 3053 3051 3048 3045 3044
3042 3042 3044 3046 3045 3045 3047 3046 3046 3048 3049 3048 3049 3048 3046 3049 3050 3050 3049 3048 3048 3048 3048 3050 3050 3050 3051 3050 3050 3050 3049 3051 3051 3051 3049 3051 3051 3049 3047 3044 3042 3039 3039
3042 3041 3041 3043 3043 3044 3044 3045 3044 3045 3046 3047 3047 3046 3046 3045 3046 3046 3046 3047 3048 3046 3047 3045 3047 3045 3047 3047 3046 3046 3045 3046 3046 3045 3045 3046 3044 3042 3039 3037 3036 3034 3034
3041 3042 3043 3044 3043 3043 3045 3044 3042 3043 3043 3044 3044 3042 3043 3043 3043 3042 3043 3044 3043 3041 3041 3040 3040 3042 3043 3042 3041 3041 3041 3041 3041 3041 3038 3037 3036 3034 3033 3032 3031 3029 3029
3044 3044 3045 3045 3045 3045 3045 3044 3042 3043 3044 3043 3043 3042 3041 3040 3039 3040 3040 3039 3038 3038 3037 3037 3038 3038 3037 3036 3036 3036 3036 3036 3034 3033 3031 3030 3029 3029 3028 3026 3025 3025 3025
3045 3045 3046 3047 3047 3047 3046 3045 3045 3044 3043 3043 3043 3042 3040 3039 3038 3038 3038 3037 3036 3035 3034 3033 3032 3032 3032 3032 3032 3031 3030 3029 3028 3027 3026 3026 3025 3023 3021 3020 3020 3020 3019
3048 3048 3048 3048 3047 3046 3046 3045 3045 3044 3043 3042 3041 3040 3038 3037 3036 3035 3034 3032 3031 3030 3029 3029 3028 3028 3027 3027 3026 3025 3024 3024 3023 3023 3023 3020 3018 3017 3016 3016 3016 3016 3015